Theta_e
315 314 314 314 314 313 313 314 316 315 315 314 314 314 314 312 311 311 310 310 310 309
317 316 316 315 314 312 313 314 315 315 315 315 315 315 314 312 312 312 312 311 311 310
317 316 316 315 314 314 314 314 315 315 315 315 315 316 315 313 314 312 313 312 311 312
317 316 316 314 314 314 315 315 315 316 316 316 316 317 315 315 314 313 313 314 312 312
316 315 315 315 316 315 314 315 315 316 316 317 317 317 316 315 316 315 314 315 314 314
315 314 314 315 316 315 315 315 316 316 316 317 317 317 317 316 316 316 316 316 316 316
315 314 314 315 315 315 316 315 316 317 317 317 317 317 317 318 318 318 318 319 319 318
315 314 314 314 315 315 315 316 317 317 318 318 317 317 319 319 318 317 317 318 318 319
314 313 314 314 315 315 315 315 315 315 315 316 317 311 310 313 315 316 315 314 317 318
316 316 316 315 314 313 314 314 315 316 316 317 317 307 305 307 313 313 314 314 315 315
316 315 314 314 315 315 315 316 315 315 315 315 312 302 300 304 312 312 312 312 312 312
317 317 317 315 315 315 314 313 313 313 312 310 308 300 299 304 309 309 308 309 310 310
317 315 313 312 313 312 312 312 312 310 310 307 307 301 298 301 306 305 305 307 308 306
311 312 310 309 309 309 308 308 307 307 308 308 306 306 299 298 304 302 303 305 304 305
Wind_Speed
5 3 4 5 4 4 3 4 3 5 5 7 6 7 5 4 5 5 5 7 6 6
6 5 5 6 5 4 4 4 5 6 6 6 6 7 6 6 8 6 7 8 8 7
6 6 5 4 6 6 6 4 5 6 6 7 7 7 7 7 8 7 8 7 8 9
6 6 5 5 6 6 5 7 7 7 7 8 8 8 7 9 10 10 10 10 10 12
5 5 5 6 8 5 8 7 8 8 8 9 10 9 9 11 10 10 12 13 10 14
6 6 7 7 8 6 7 8 9 8 9 10 10 9 9 9 11 10 12 14 13 15
6 5 6 7 8 8 7 9 9 8 9 10 10 9 9 10 10 11 11 12 12 13
5 4 5 7 7 6 6 7 7 8 9 9 7 7 9 9 10 10 11 11 11 10
5 5 5 5 6 5 6 6 6 6 6 8 5 9 12 8 8 10 9 9 10 11
4 5 5 5 5 5 5 5 5 5 6 7 8 13 12 11 4 6 7 9 9 10
4 5 5 4 4 4 3 5 5 7 7 6 7 13 16 15 9 8 9 9 9 10
4 4 4 5 5 4 4 5 6 5 8 8 9 15 17 12 9 9 11 11 11 11
5 4 5 5 5 4 4 5 4 6 6 7 7 8 11 12 6 9 9 11 11 14
5 5 5 4 4 4 5 5 6 5 5 6 6 9 14 12 7 7 9 9 10 10
Wind_Direction
209 206 230 242 244 237 231 243 260 252 248 248 251 257 253 257 262 247 247 257 233 252
216 214 233 247 241 245 249 256 257 253 259 253 258 259 259 255 263 251 260 254 249 242
216 219 227 250 255 253 264 253 261 262 256 264 265 263 256 259 259 255 264 259 257 260
221 229 227 238 249 251 266 259 260 261 264 260 259 259 257 260 264 259 262 259 252 262
229 232 242 250 257 245 257 266 259 262 261 263 264 265 260 268 273 270 279 279 269 266
241 231 239 252 266 259 257 263 265 258 262 267 265 269 270 267 274 275 269 274 273 274
258 240 246 257 262 261 261 266 275 276 271 268 270 268 273 276 276 277 278 281 280 277
275 255 260 262 274 285 273 276 271 273 275 280 277 281 280 291 292 292 294 297 291 287
330 317 294 284 285 305 307 299 284 301 299 303 311 305 303 295 293 298 296 291 299 299
316 299 305 319 334 329 320 321 333 336 347 353 357 351 353 350 329 312 308 310 312 312
342 340 357 4 9 344 352 359 355 13 16 29 26 13 16 4 360 346 337 331 324 319
16 29 28 30 10 15 23 27 35 31 35 35 25 22 17 360 356 349 341 338 332 331
39 39 42 33 32 21 43 57 43 43 29 24 15 4 12 13 359 352 336 328 332 330
33 44 44 42 36 45 54 56 40 32 8 13 10 1 5 4 0 353 338 334 338 335